Regional Weather Roundup
Issued by NWS

Home | Current Version | Previous Version | Text Only | Print | Product List | Glossary On
Versions: 1 2 3 4 5 6 7 8 9 10 11 12 13 14 15 16 17 18 19 20 21 22 23 24 25 26 27
000
ASUS44 KJAN 211010
RWRMS

MISSISSIPPI HOURLY WEATHER ROUNDUP
NATIONAL WEATHER SERVICE JACKSON MS
400 AM CST SAT JAN 21 2017

NOTE: "FAIR: INDICATES FEW OR NO CLOUDS BELOW 12,000 FEET WITH NO
SIGNIFICANT WEATHER AND/OR OBSTRUCTIONS TO VISIBILITY.

MSZ001>002-007>008-010>013-018>021-025>028-034>036-211100-
NORTHWEST MISSISSIPPI

CITY           SKY/WX    TMP DP  RH WIND       PRES   REMARKS
BATESVILLE     LGT RAIN  58  55  89 N6        29.70F
CLARKSDALE     CLOUDY    61  59  94 SE5       29.67F
CLEVELAND      CLOUDY    61  58  91 S10G16    29.68S
GREENWOOD      LGT RAIN  60  55  83 SE10      29.69F
GREENVILLE     CLOUDY    61  53  75 S6        29.68F
OXFORD         LGT RAIN  59  52  77 SE8       29.70F
TUNICA         CLOUDY    61  54  77 S12       29.67F
WINONA         TSTM      58  57  96 W6        29.72F
$$

MSZ003>006-009-014>017-022>024-029>033-037>039-211100-
NORTHEAST MISSISSIPPI

CITY           SKY/WX    TMP DP  RH WIND       PRES   REMARKS
COLUMBUS AFB   NOT AVBL
CORINTH        FAIR      55  52  88 SE5       29.70S
GOLDN TRIANGLE CLOUDY    57  52  82 CALM      29.63F
STARKVILLE     CLOUDY    55  54  94 CALM      29.68F
TUPELO         CLOUDY    58  52  80 SE7       29.70F
$$

MSZ040-058-211100-
CENTRAL MISSISSIPPI

CITY           SKY/WX    TMP DP  RH WIND       PRES   REMARKS
JACKSON INTL   RAIN      60  58  92 NW5       29.69R FOG
JACKSON HAWKNS HVY RAIN  60  58  92 NW10      29.68F FOG
MADISON        CLOUDY    59  55  88 NW7       29.68F THUNDER
MERIDIAN KEY   RAIN      65  65 100 SE8       29.66F FOG
MERIDIAN NAS   TSTM      64  61  90 SE6       29.68F FOG
RAYMOND        TSTM      61  59  94 NW9G16    29.69F
VICKSBURG VKS  CLOUDY    59  57  94 CALM      29.72F FOG
$$

MSZ059>079-211100-
SOUTH MISSISSIPPI

CITY           SKY/WX    TMP DP  RH WIND       PRES   REMARKS
BROOKHAVEN     HVY RAIN  61  61 100 NW7       29.69F
HATTIESBURG      N/A     70  68  93 MISG      29.58F THUNDER
LAUREL         CLOUDY    66  66 100 SW13G23   29.66S VSB 3/4
MCCOMB         TSTM      62  59  90 E6        29.67F FOG
NATCHEZ        CLOUDY    59  55  88 NW8       29.75R
PINE BELT      CLOUDY    64  63  94 W10G33    29.64F THUNDER
$$

MSZ080>082-211100-
COASTAL MISSISSIPPI

CITY           SKY/WX    TMP DP  RH WIND       PRES   REMARKS
BILOXI         CLOUDY    68  68 100 S13       29.68S FOG
PASCAGOULA     CLOUDY    72  68  87 S10G22    29.69F
GULFPORT       CLOUDY    69  69 100 S13G21    29.67F FOG
$$

LAZ007>009-015>016-023>026-211100-
NORTHEAST LOUISIANA

CITY           SKY/WX    TMP DP  RH WIND       PRES   REMARKS
BASTROP        LGT RAIN  59  58  97 S7        29.67F
TALLULAH/VBURG LGT RAIN  59  58  96 CALM      29.72F
VIDALIA        LGT RAIN  60  57  90 N8G16     29.76R
$$




USA.gov is the U.S. government's official web portal to all federal, state and local government web resources and services.